User: anonymous   Login
Location: Unspecified
(0.0000°N, 0.0000°E)
Time: 00:57:08
(UTC+00:00)
Language:

STARLINK-31003 - Orbit

View from above orbital plane
View from above orbital plane
View from above satellite
View from above satellite

Ground track
Ground track

The orbit is defined by the following mean orbital elements,

1 58520U          26145.04491441 +.00000000 +00000-0 +23297-3 0 00004
2 58520  43.0047  31.8103 0001348 269.7615  90.3083 15.27583518    06
Epoch (UTC): 25 May 2026 01:04:40
Eccentricity: 0.0001348
inclination: 43.0047°
perigee height: 482 km
apogee height: 484 km
right ascension of ascending node: 31.8103°
argument of perigee: 269.7615°
revolutions per day: 15.27583518
mean anomaly at epoch: 90.3083°

The dashed part of the orbit path shows where the satellite is in the earth's shadow,  

DLR